#timestamp,LO_Frequency,Hit,StdDev 
1541224815.1,286046995.5,N
1541224835.9,286046995.1,N
1541224855.7,286046998.0,N
1541224875.5,286046997.5,N
1541224895.4,286046996.9,N
1541224915.2,286046997.4,N
1541224935.0,286046999.2,N
1541224936.0,286046999.2,N
1541224955.8,286046999.9,N
1541224975.6,286047001.0,N
1541224995.5,286047000.9,N
1541225015.3,286047001.1,N
1541225035.1,286046998.8,N
1541225055.9,286046999.0,N
1541225075.7,286046999.6,N
1541225095.5,286046998.7,N
1541225115.4,286046999.8,N
1541225135.2,286046998.2,N
1541225155.1,286047001.1,N
1541225156.0,286047001.1,N
1541225175.8,286046999.1,N
1541225195.6,286046997.0,N
1541225215.5,286046996.9,N
1541225235.3,286046997.5,N
1541225255.1,286046997.4,N
1541225275.9,286046997.3,N
1541225295.7,286047001.2,N
1541225315.6,286047000.6,N
1541225335.4,286046998.1,N
1541225355.2,286046998.5,N
1541225375.1,286047000.8,N
1541225376.0,286047000.8,N
1541225395.8,286047002.0,N
1541225415.6,286046999.9,N
1541225435.5,286047000.8,N
1541225455.3,286046998.3,N
1541225475.2,286046998.2,N
1541225495.9,286046998.3,N
1541225515.7,286046999.2,N
1541225535.6,286046998.9,N
1541225555.4,286046999.3,N
1541225575.2,286046999.4,N
1541225595.1,286046998.7,N
1541225596.0,286046998.7,N
1541225615.8,286047000.8,N
1541225635.7,286047000.7,N
1541225655.5,286046998.5,N
1541225675.3,286047000.6,N
1541225695.2,286046999.8,N
1541225715.9,286047000.5,N
1541225735.7,286047001.2,N
1541225755.6,286047000.4,N
1541225775.4,286046998.8,N
1541225795.3,286046998.5,N
1541225815.1,286046998.9,N
1541225816.0,286046998.9,N
1541225835.8,286047001.1,N
1541225855.7,286046998.1,N
1541225875.5,286047002.1,N
1541225895.3,286047004.4,Y
1541225915.2,286047004.5,P
1541225935.0,286047006.4,N
1541225935.9,286047006.4,N
1541225955.8,286047008.7,Y
1541225975.6,286047006.0,P
1541225995.4,286047005.4,P
1541226015.3,286047005.7,P
1541226035.1,286047005.4,Y
1541226055.9,286046997.3,P
1541226075.7,286046993.6,N
1541226095.5,286046994.8,N
1541226115.4,286046992.9,N
1541226135.2,286046990.1,N
1541226155.0,286046990.4,N
1541226155.9,286046990.4,N
1541226175.8,286046989.5,N
1541226195.6,286046990.0,N
1541226215.4,286046988.8,N
1541226235.3,286046994.6,N
1541226255.1,286046993.5,N
1541226275.9,286046996.2,N
1541226295.7,286046993.5,N
1541226315.5,286046996.1,N
1541226335.4,286046993.5,N
1541226355.2,286046996.3,N
1541226375.0,286046993.9,N
1541226375.9,286046993.9,N
1541226395.8,286046997.3,N
1541226415.6,286046995.5,N
1541226435.5,286046994.3,N
1541226455.3,286046993.8,N
1541226475.1,286046991.8,N
1541226495.9,286046993.1,N
1541226515.7,286046992.6,N
1541226535.6,286046992.1,N
1541226555.4,286046992.6,N
1541226575.2,286046991.8,N
1541226595.1,286046994.3,N
1541226596.0,286046994.3,N
1541226615.8,286046994.0,N
1541226635.6,286046994.8,N
1541226655.5,286046994.5,N
1541226675.3,286046994.0,N
1541226695.2,286046993.4,Y
1541226715.9,286047000.2,P
1541226735.7,286046999.7,N
1541226755.6,286046999.7,N
1541226775.4,286047002.6,N
1541226795.2,286046999.7,N
1541226815.1,286047002.2,N
1541226816.0,286047002.2,N
1541226835.8,286047000.9,N
1541226855.7,286046998.6,N
1541226875.5,286046996.7,N
1541226895.3,286046998.0,N
1541226915.2,286046996.9,N
1541226935.9,286047001.2,N
1541226955.7,286047000.0,N
1541226975.6,286047000.7,N
1541226995.4,286046999.9,N
1541227015.2,286047000.7,N
1541227035.1,286046999.5,N
1541227036.0,286046999.5,N
1541227055.8,286046996.6,N
1541227075.7,286046996.9,N
1541227095.5,286046999.5,N
1541227115.3,286046997.2,N
1541227135.2,286046997.4,N
1541227155.0,286046998.0,N
1541227155.9,286046998.0,N
1541227175.8,286046997.4,N
1541227195.6,286046995.2,N
1541227215.4,286046995.2,N
1541227235.3,286046996.7,N
1541227255.1,286046995.4,N
1541227275.8,286046995.5,N
1541227295.7,286046995.0,N
1541227315.5,286046996.2,N
1541227335.4,286046993.6,Y
1541227355.2,286046997.4,P
1541227375.0,286046997.5,P
1541227375.9,286046997.5,P
1541227395.8,286046997.4,Y
1541227415.6,286046998.6,P
1541227435.4,286047001.2,N
1541227455.3,286047000.7,N
1541227475.1,286047000.2,N
1541227495.9,286047002.5,N
1541227515.7,286047004.0,N
1541227535.5,286047003.2,N
1541227555.4,286047003.0,N
1541227575.2,286047003.0,N
1541227595.0,286047003.6,N
1541227595.9,286047003.6,N
1541227615.8,286047005.7,N
1541227635.6,286047003.4,N
1541227655.5,286047004.2,N
1541227675.3,286047003.6,N
1541227695.1,286047004.8,N
1541227715.9,286047005.8,N
1541227735.7,286047005.5,N
1541227755.5,286047007.5,Y
1541227775.4,286047003.0,P
1541227795.2,286047006.0,P
1541227815.1,286047003.4,N
1541227816.0,286047003.4,N
1541227835.8,286047003.6,Y
1541227855.6,286046996.7,P
1541227875.5,286046995.2,N
1541227895.3,286046993.6,N
1541227915.1,286046991.7,N
1541227935.9,286046994.7,N
1541227955.7,286046994.8,N
1541227975.6,286046992.7,N
1541227995.4,286046990.9,N
1541228015.2,286046990.3,N
1541228035.1,286046993.1,N
1541228036.0,286046993.1,N
1541228055.8,286046994.8,N
1541228075.6,286046996.0,N
1541228095.5,286046996.0,N
1541228115.3,286046995.3,N
1541228135.2,286046997.5,N
1541228155.9,286046996.0,N
1541228175.7,286046997.4,N
1541228195.6,286046997.3,N
1541228215.4,286046998.9,N
1541228235.2,286047000.5,N
1541228255.1,286047002.8,N
1541228256.0,286047002.8,N
1541228275.8,286047000.5,N
1541228295.7,286047000.2,N
1541228315.5,286047002.5,N
1541228335.3,286047002.2,N
1541228355.2,286047001.3,N
1541228375.0,286047001.4,N
1541228375.9,286047001.4,N
1541228395.8,286047002.2,N
